This is the latest recevied weather packets stored in our database for station/object NN5DX-12. If no packets are shown the sender has not sent any weather packets the latest 10 day(s).
| Time | Temp. | Humidity | Pressure | Rain* | Wind** | Luminosity | Snow |
|---|---|---|---|---|---|---|---|
| 1778188215 | 11.67° C | 36% | 1022.1 hPa | 0 mm | - | - | - |
| 1778187916 | 11.67° C | 36% | 1022.3 hPa | 0 mm | - | - | - |
| 1778187615 | 11.67° C | 35% | 1022.4 hPa | 0 mm | - | - | - |
| 1778187318 | 11.67° C | 36% | 1022.1 hPa | 0 mm | - | - | - |
| 1778187018 | 11.11° C | 38% | 1022 hPa | 0 mm | - | - | - |
| 1778186717 | 11.11° C | 42% | 1022.8 hPa | 0 mm | - | - | - |
| 1778186416 | 11.11° C | 42% | 1022.8 hPa | 0 mm | - | - | - |
| 1778186117 | 11.11° C | 45% | 1023 hPa | 0 mm | - | - | - |
| 1778185818 | 11.11° C | 43% | 1023.1 hPa | 0 mm | - | - | - |
| 1778185517 | 11.11° C | 42% | 1023.1 hPa | 0 mm | - | - | - |
| 1778185216 | 11.11° C | 44% | 1023.3 hPa | 0 mm | - | - | - |
| 1778184918 | 11.67° C | 41% | 1024.5 hPa | 0 mm | - | - | - |
| 1778184618 | 11.67° C | 37% | 1024.4 hPa | 0.25 mm | - | - | - |
| 1778184318 | 12.22° C | 35% | 1024.4 hPa | 0.51 mm | - | - | - |
| 1778184018 | 12.22° C | 35% | 1024.4 hPa | 0.76 mm | - | - | - |
| 1778183717 | 12.78° C | 33% | 1024.9 hPa | 1.02 mm | - | - | - |
| 1778183417 | 12.78° C | 36% | 1024.4 hPa | 1.27 mm | - | - | - |
| 1778183118 | 12.22° C | 34% | 1024.3 hPa | 1.52 mm | - | - | - |
| 1778182818 | 12.78° C | 35% | 1024.6 hPa | 1.78 mm | - | - | - |
| 1778182517 | 12.78° C | 33% | 1024.5 hPa | 2.29 mm | - | - | - |
| 1778182218 | 13.33° C | 36% | 1024.7 hPa | 2.54 mm | - | - | - |
| 1778181918 | 13.33° C | 33% | 1025.2 hPa | 2.79 mm | - | - | - |
| 1778181617 | 13.33° C | 34% | 1025.5 hPa | 3.05 mm | - | - | - |
| 1778181318 | 13.33° C | 33% | 1025.3 hPa | 3.05 mm | - | - | - |
| 1778181018 | 13.89° C | 36% | 1025.7 hPa | 3.05 mm | - | - | - |
* Rain latest hour (hover to see other rain measurements)
** Current wind speed in m/s (hover to see current wind gust speed)